星链-34952 (STARLINK-34952)

导读 | 豆包AI

STARLINK-34952是美国太空探索技术公司SpaceX开发的星链互联网卫星星座中的一员,于2025年8月14日由SpaceX从加利福尼亚州范登堡空军基地发射,一同发射的共24颗Starlink V2 Mini卫星,被送入极地低地球轨道,进一步扩大了星链星座规模,助力星链为全球提供高速卫星互联网接入服务,此次发射也是SpaceX在2025年执行的第98次猎鹰9号任务。

基本信息
目录编号:
65197
目录名称:
STARLINK-34952
国际标识:
2025-175Z
轨道中心:
EARTH
卫星名称:
星链-34952
卫星全名:
星链-34952 (STARLINK-34952)
卫星状态:
在轨 (已飞行258 天)
发射日期:
2025-08-14 UTC
国别 :
美国 (US)
星等 :
--
轨道信息
数据来源 国际轨道数据 AOE轨道数据
星历时间 2026-04-29T11:03:25+0800
6小时前
查看轨道信息
2026-04-22T22:00:00+0800
6天前
查看轨道信息
半长轴 6927.629km 6927.639km
偏心率 0.0002105 0.0002536
轨道倾角 97.559° 97.588°
近地点辐角 76.604° 75.317°
升交点赤经 352.395° 345.969°
平近点角 283.542° 116.282°
近地点 548.033km 547.745km
远地点 550.951km 551.259km
周期 95.639分钟 95.640分钟
每日圈数 15.056565 15.056532
详细信息
固有亮度:
5
最大亮度:
2.5
卫星平台:
Starlink V1.0
覆盖范围:
全球
运营商:
太空探索技术公司
运营商所在国:
美国
制造商(研发单位):
太空探索技术公司
制造商所在国:
美国
使用方式:
暂无
卫星简介
Starlink 计划是 SpaceX 推出的全球卫星互联网项目,通过发射低轨道卫星,为全球尤其是偏远地区提供高速、低延迟的互联网服务。自 2019 年起,Starlink 已部署数千颗卫星,旨在缩小全球数字鸿沟,推动互联网普及。该项目还为军事、航空等行业提供通信支持,带来广泛经济效益。
2D轨道图
3D轨道图
轨道高度分析图
轨道倾角分析图
轨道综合分析图
查看轨道综合分析图